#timestamp,LO_Frequency,Hit,StdDev 
1691038815.5,286047000.6,N
1691038835.3,286047006.9,N
1691038855.2,286047007.0,N
1691038875.9,286047008.4,N
1691038895.7,286047006.4,N
1691038915.6,286047003.9,N
1691038935.4,286047005.1,N
1691038955.3,286047002.9,N
1691038975.1,286047000.1,N
1691038995.8,286047003.2,N
1691039015.7,286047003.8,N
1691039035.5,286047003.6,N
1691039055.4,286047003.4,N
1691039075.2,286047001.0,N
1691039095.0,286047003.2,N
1691039095.9,286047003.2,N
1691039115.8,286047001.2,N
1691039135.6,286046995.6,N
1691039155.5,286046995.9,N
1691039175.3,286046993.0,N
1691039195.1,286046990.3,N
1691039215.9,286046993.7,N
1691039235.7,286046992.2,N
1691039255.5,286046992.7,N
1691039275.4,286046988.8,N
1691039295.2,286046988.5,N
1691039315.1,286046998.0,N
1691039316.0,286046998.0,N
1691039335.8,286046999.6,N
1691039355.6,286046997.2,N
1691039375.5,286047001.9,N
1691039395.3,286047001.6,N
1691039415.2,286046996.8,N
1691039435.9,286046992.2,N
1691039455.7,286046988.5,N
1691039475.6,286046994.7,N
1691039495.4,286046997.0,N
1691039515.2,286046996.8,N
1691039535.1,286046998.4,N
1691039536.0,286046998.4,N
1691039555.8,286046997.8,N
1691039575.7,286046992.1,N
1691039595.5,286046996.1,N
1691039615.3,286046993.2,N
1691039635.2,286046992.9,N
1691039655.0,286046994.5,N
1691039655.9,286046994.5,N
1691039675.7,286046997.7,N
1691039695.6,286046999.6,N
1691039715.4,286046995.0,N
1691039735.3,286046986.9,Y
1691039755.1,286046994.4,P
1691039775.8,286046994.6,P
1691039795.7,286046995.1,P
1691039815.5,286046997.0,Y
1691039835.4,286046996.5,P
1691039855.2,286046998.2,N
1691039875.0,286047006.0,P
1691039875.9,286047006.0,N
1691039895.8,286046999.8,N
1691039915.6,286047001.6,N
1691039935.5,286047003.7,N
1691039955.3,286047005.0,N
1691039975.1,286047009.3,N
1691039995.9,286047016.5,Y
1691040015.7,286047011.6,P
1691040035.5,286047014.4,P
1691040055.4,286047013.9,N
1691040075.2,286047014.9,N
1691040095.1,286047017.5,Y
1691040096.0,286047017.5,P
1691040115.8,286047007.8,N
1691040135.6,286047002.2,N
1691040155.5,286046999.1,N
1691040175.3,286046998.4,N
1691040195.2,286047001.3,N
1691040215.9,286047008.4,N
1691040235.7,286047009.7,N
1691040255.6,286047010.6,N
1691040275.4,286047007.8,N
1691040295.3,286047009.2,N
1691040315.1,286047010.1,N
1691040316.0,286047010.1,N
1691040335.8,286047009.4,N
1691040355.7,286047009.1,N
1691040375.5,286047003.2,N
1691040395.3,286047000.4,N
1691040415.2,286047004.2,N
1691040435.0,286047001.8,N
1691040435.9,286047001.8,N
1691040455.8,286047000.5,N
1691040475.6,286047005.6,N
1691040495.4,286047009.1,N
1691040515.3,286047010.7,N
1691040535.1,286047014.4,Y
1691040555.9,286047011.5,P
1691040575.7,286047008.3,P
1691040595.5,286047008.5,P
1691040615.4,286047008.9,Y
1691040635.2,286046997.6,P
1691040655.1,286047000.2,N
1691040656.0,286047000.2,N
1691040675.8,286047004.4,N
1691040695.6,286046998.8,N
1691040715.5,286046996.6,N
1691040735.3,286046993.6,N
1691040755.1,286046992.6,N
1691040775.9,286046996.4,N
1691040795.7,286046993.9,N
1691040815.6,286046998.8,N
1691040835.4,286046996.7,N
1691040855.2,286046996.2,N
1691040875.1,286046997.3,N
1691040876.0,286046997.3,N
1691040895.8,286046993.9,N
1691040915.7,286046999.9,N
1691040935.5,286046999.2,N
1691040955.3,286046993.5,N
1691040975.2,286046998.7,N
1691040995.0,286047000.1,N
1691040995.9,286047000.1,N
1691041015.7,286046999.1,N
1691041035.6,286046996.4,N
1691041055.4,286046998.0,N
1691041075.3,286046992.2,N
1691041095.1,286046996.1,N
1691041115.8,286046996.6,N
1691041135.7,286046994.9,N
1691041155.5,286046998.0,N
1691041175.4,286046996.8,N
1691041195.2,286046995.3,N
1691041215.0,286046994.4,N
1691041215.9,286046994.4,N
1691041235.8,286046998.4,N
1691041255.6,286047002.1,N
1691041275.4,286046997.2,N
1691041295.3,286046996.0,N
1691041315.1,286046992.3,Y
1691041335.9,286046989.2,P
1691041355.7,286046989.1,N
1691041375.5,286046988.0,P
1691041395.4,286046987.1,Y
1691041415.2,286046998.0,P
1691041435.1,286047001.9,N
1691041436.0,286047001.9,N
1691041455.8,286047002.8,N
1691041475.6,286046999.6,N
1691041495.5,286046996.3,N
1691041515.3,286046989.1,N
1691041535.1,286046991.9,N
1691041555.9,286046993.8,N
1691041575.7,286046999.5,N
1691041595.6,286046993.3,N
1691041615.4,286046993.2,N
1691041635.2,286046994.0,N
1691041655.1,286046993.0,N
1691041656.0,286046993.0,N
1691041675.8,286046995.9,N
1691041695.7,286046996.9,N
1691041715.5,286046995.9,N
1691041735.3,286046997.6,N
1691041755.2,286046995.3,N
1691041775.0,286046995.0,N
1691041775.9,286046995.0,N
1691041795.7,286046997.4,N
1691041815.6,286046987.2,Y
1691041835.4,286046996.4,P
1691041855.3,286046991.5,P
1691041875.1,286046984.6,P
1691041895.8,286046980.0,Y
1691041915.7,286046985.4,P
1691041935.5,286046983.8,P
1691041955.4,286046979.5,P
1691041975.2,286046979.6,Y
1691041995.0,286046999.6,P
1691041995.9,286046999.6,N
1691042015.8,286047002.7,N
1691042035.6,286046996.7,N
1691042055.5,286046992.7,N
1691042075.3,286046991.3,N
1691042095.1,286046990.5,N
1691042115.9,286046990.0,N
1691042135.7,286046990.7,N
1691042155.5,286046993.0,N
1691042175.4,286046986.9,N
1691042195.2,286046984.2,Y
1691042215.1,286046994.8,P
1691042216.0,286046994.8,P
1691042235.8,286047002.6,P
1691042255.6,286047000.1,N
1691042275.5,286047002.6,N
1691042295.3,286047002.7,N
1691042315.2,286047003.0,N
1691042335.9,286047001.4,N
1691042355.7,286047008.3,N
1691042375.6,286047009.1,N
1691042395.4,286047004.9,N
